CT2HBZ Weather Reports


time (UTC)temp
C
wind
direction
speed
KPH
gust
KPH
rain 1hr
cm
rain 24hr
cm
rain mn
cm
humidity
%
barometer
mb
20260508132415 19 212 12.9 25.7 0.00 0.00 0.00 45 1011.3
20260508131415 19 211 9.7 20.9 0.00 0.00 0.00 44 1011.2
20260508130415 19 208 14.5 25.7 0.00 0.00 0.00 41 1011.3
20260508125415 20 185 12.9 25.7 0.00 0.00 0.00 41 1011.5
20260508124415 20 179 11.3 19.3 0.00 0.00 0.00 41 1011.6
20260508123436 19 201 11.3 20.9 0.00 0.00 0.00 42 1011.8
20260508122416 19 191 14.5 29.0 0.00 0.00 0.00 39 1011.7
20260508121415 19 180 9.7 24.1 0.00 0.00 0.00 41 1011.9
20260508120415 19 195 11.3 24.1 0.00 0.00 0.00 43 1012.1
20260508115415 19 192 12.9 22.5 0.00 0.00 0.00 42 1012.2
20260508114415 19 187 16.1 30.6 0.00 0.00 0.00 40 1012.3
20260508113415 18 209 12.9 19.3 0.00 0.00 0.00 44 1012.3
20260508112415 18 199 11.3 17.7 0.00 0.00 0.00 50 1012.4
20260508111415 18 149 8.0 19.3 0.00 0.00 0.00 50 1012.6
20260508110415 17 171 4.8 14.5 0.00 0.00 0.00 54 1012.6
20260508105435 17 137 6.4 14.5 0.00 0.00 0.00 58 1012.8
20260508104415 17 166 3.2 9.7 0.00 0.00 0.00 60 1013.0
20260508103416 17 113 4.8 11.3 0.00 0.00 0.00 59 1013.0
20260508102415 17 162 9.7 14.5 0.00 0.00 0.00 57 1013.0
20260508101415 16 185 8.0 17.7 0.00 0.00 0.00 58 1013.0
20260508100415 17 147 9.7 17.7 0.00 0.00 0.00 55 1012.9
20260508095415 17 167 6.4 12.9 0.00 0.00 0.00 55 1012.9
20260508094416 16 183 4.8 11.3 0.00 0.00 0.00 56 1012.9
20260508093415 16 178 8.0 16.1 0.00 0.00 0.00 59 1013.0
20260508092418 16 216 8.0 12.9 0.00 0.00 0.00 60 1013.0
20260508091415 16 163 8.0 14.5 0.00 0.00 0.00 61 1013.1
20260508090415 16 125 11.3 16.1 0.00 0.00 0.00 61 1013.1
20260508085415 16 130 6.4 9.7 0.00 0.00 0.00 61 1013.2
20260508084416 16 173 8.0 14.5 0.00 0.00 0.00 59 1013.2
20260508083535 16 199 8.0 12.9 0.00 0.00 0.00 58 1013.1
20260508082415 16 171 6.4 12.9 0.00 0.00 0.00 62 1013.1
20260508081455 15 194 4.8 9.7 0.00 0.00 0.00 63 1013.1
20260508080415 15 157 8.0 16.1 0.00 0.00 0.00 65 1013.1
20260508075416 15 204 6.4 11.3 0.00 0.00 0.00 67 1013.1
20260508074436 15 154 4.8 9.7 0.00 0.00 0.00 67 1013.0
20260508073415 15 176 3.2 11.3 0.00 0.00 0.00 67 1013.0
20260508072415 15 168 4.8 11.3 0.00 0.00 0.00 65 1013.0
20260508071415 15 180 3.2 8.0 0.00 0.00 0.00 63 1012.9
20260508070415 14 222 4.8 6.4 0.00 0.00 0.00 65 1012.8
20260508065436 14 228 4.8 8.0 0.00 0.00 0.00 67 1012.8
20260508064415 13 231 4.8 9.7 0.00 0.00 0.00 69 1012.8
20260508063416 13 247 6.4 11.3 0.00 0.00 0.00 70 1012.6
20260508062415 13 249 8.0 11.3 0.00 0.00 0.00 70 1012.6
20260508061435 13 252 6.4 14.5 0.00 0.00 0.00 70 1012.5
20260508060435 13 239 6.4 11.3 0.00 0.00 0.00 70 1012.5
20260508055415 13 254 8.0 11.3 0.00 0.00 0.00 69 1012.4
20260508054415 13 250 4.8 11.3 0.00 0.00 0.00 70 1012.3
20260508053415 12 235 3.2 4.8 0.00 0.00 0.00 71 1012.2
20260508052416 13 296 4.8 8.0 0.00 0.00 0.00 71 1012.1
20260508051415 13 301 4.8 6.4 0.00 0.00 0.00 70 1011.9
20260508050415 13 286 4.8 6.4 0.00 0.00 0.00 69 1011.8
20260508045415 13 356 1.6 4.8 0.00 0.00 0.00 67 1011.8
20260508044415 13 343 1.6 4.8 0.00 0.00 0.00 67 1011.7
20260508043415 13 349 3.2 4.8 0.00 0.00 0.00 66 1011.7
20260508042415 13 350 3.2 4.8 0.00 0.00 0.00 67 1011.8
20260508041435 13 318 3.2 4.8 0.00 0.00 0.00 66 1012.0
20260508040415 13 310 3.2 4.8 0.00 0.00 0.00 65 1012.0
20260508035416 13 312 3.2 4.8 0.00 0.00 0.00 64 1012.0
20260508034415 13 348 3.2 3.2 0.00 0.00 0.00 63 1012.1
20260508033435 13 342 1.6 1.6 0.00 0.00 0.00 65 1012.2
20260508032416 13 262 3.2 4.8 0.00 0.00 0.00 64 1012.2
20260508031415 13 296 1.6 3.2 0.00 0.00 0.00 64 1012.2
20260508030416 13 297 3.2 4.8 0.00 0.00 0.00 63 1012.2
20260508025416 14 289 1.6 4.8 0.00 0.00 0.00 63 1012.2
20260508024436 13 352 1.6 3.2 0.00 0.00 0.00 64 1012.2
20260508023415 13 274 3.2 4.8 0.00 0.00 0.00 64 1012.2
20260508022416 13 259 3.2 6.4 0.00 0.00 0.00 65 1012.2
20260508021455 13 271 3.2 6.4 0.00 0.00 0.00 65 1012.4
20260508020418 13 275 1.6 4.8 0.00 0.00 0.00 66 1012.5
20260508015415 13 236 3.2 6.4 0.00 0.00 0.00 66 1012.7
20260508014415 13 286 4.8 8.0 0.00 0.00 0.00 65 1012.6
20260508013415 13 312 4.8 6.4 0.00 0.00 0.00 65 1012.7
20260508012415 13 303 4.8 6.4 0.00 0.00 0.00 65 1012.9
20260508011415 13 283 3.2 4.8 0.00 0.00 0.00 64 1013.1
20260508010415 13 261 3.2 4.8 0.00 0.00 0.00 64 1013.3
20260508005415 13 289 3.2 4.8 0.00 0.00 0.00 64 1013.2
20260508004416 13 272 3.2 6.4 0.00 0.00 0.00 64 1013.4
20260508003435 13 251 4.8 6.4 0.00 0.00 0.00 64 1013.3
20260508002415 13 266 1.6 4.8 0.00 0.00 0.00 64 1013.3
20260508001435 13 279 3.2 6.4 0.00 0.00 0.00 64 1013.3
20260508000415 13 296 4.8 6.4 0.00 0.00 0.00 63 1013.3
20260507235415 13 315 3.2 6.4 0.00 0.00 0.00 63 1013.2
20260507234415 13 289 1.6 3.2 0.00 0.00 0.00 63 1013.3
20260507233415 13 291 4.8 6.4 0.00 0.00 0.00 62 1013.3
20260507232415 13 297 4.8 6.4 0.00 0.00 0.00 63 1013.4
20260507231435 13 297 3.2 6.4 0.00 0.00 0.00 62 1013.5
20260507230415 14 263 1.6 3.2 0.00 0.00 0.00 61 1013.7
20260507225416 14 311 3.2 4.8 0.00 0.00 0.00 60 1013.5
20260507224415 15 276 1.6 3.2 0.00 0.00 0.00 59 1013.7
20260507223436 15 353 3.2 4.8 0.00 0.00 0.00 58 1013.7
20260507222415 15 67 4.8 8.0 0.00 0.00 0.00 58 1013.9
20260507221416 15 55 3.2 6.4 0.00 0.00 0.00 58 1013.9
20260507220416 15 28 4.8 11.3 0.00 0.00 0.00 58 1013.9
20260507215415 15 42 4.8 8.0 0.00 0.00 0.00 58 1014.0
20260507214415 15 91 4.8 6.4 0.00 0.00 0.00 58 1014.1
20260507213415 15 119 3.2 6.4 0.00 0.00 0.00 58 1014.1
20260507212415 15 60 1.6 6.4 0.00 0.00 0.00 58 1014.0
20260507211436 15 21 1.6 6.4 0.00 0.00 0.00 58 1014.0
20260507210415 15 346 8.0 20.9 0.00 0.00 0.00 58 1013.7
20260507205415 15 267 6.4 17.7 0.00 0.00 0.00 58 1013.9
20260507204415 15 287 11.3 24.1 0.00 0.00 0.00 58 1013.7
20260507203436 15 296 12.9 24.1 0.00 0.00 0.00 58 1013.5
20260507202415 15 289 14.5 25.7 0.00 0.00 0.00 57 1013.5
20260507201416 15 290 14.5 24.1 0.00 0.00 0.00 56 1013.2
20260507200415 15 299 12.9 29.0 0.00 0.00 0.00 56 1013.2
20260507195415 15 293 12.9 24.1 0.00 0.00 0.00 55 1013.1
20260507194415 15 290 16.1 29.0 0.00 0.00 0.00 55 1013.1
20260507193415 15 283 11.3 22.5 0.00 0.00 0.00 55 1013.1
20260507192415 15 270 12.9 27.4 0.00 0.00 0.00 54 1013.2
20260507191435 15 283 17.7 29.0 0.00 0.00 0.00 53 1013.1
20260507190415 15 282 12.9 22.5 0.00 0.00 0.00 52 1013.0
20260507185415 16 289 12.9 24.1 0.00 0.00 0.00 49 1012.8
20260507184415 16 286 11.3 24.1 0.00 0.00 0.00 50 1012.8
20260507183415 16 290 12.9 24.1 0.00 0.00 0.00 50 1012.7
20260507182416 16 288 16.1 29.0 0.00 0.00 0.00 49 1012.9
20260507181416 16 291 14.5 27.4 0.00 0.00 0.00 48 1012.8
20260507180415 17 328 11.3 25.7 0.00 0.00 0.00 46 1012.7
20260507175416 17 313 11.3 22.5 0.00 0.00 0.00 45 1012.6
20260507174415 17 298 14.5 27.4 0.00 0.00 0.00 45 1012.6
20260507173415 17 290 12.9 22.5 0.00 0.00 0.00 43 1012.6
20260507172415 17 327 12.9 27.4 0.00 0.00 0.00 41 1012.6
20260507171415 18 296 11.3 19.3 0.00 0.00 0.00 41 1012.7
20260507170415 18 296 19.3 29.0 0.00 0.00 0.00 40 1012.7
20260507165415 18 293 16.1 30.6 0.00 0.00 0.00 38 1012.7
20260507164435 18 278 14.5 22.5 0.00 0.00 0.00 38 1012.7
20260507163416 18 298 11.3 25.7 0.00 0.00 0.00 37 1012.6
20260507162435 18 280 16.1 24.1 0.00 0.00 0.00 40 1012.7
20260507161416 18 290 17.7 27.4 0.00 0.00 0.00 38 1012.6
20260507160415 18 292 11.3 24.1 0.00 0.00 0.00 37 1012.7
20260507155415 18 294 19.3 29.0 0.00 0.00 0.00 39 1012.6
20260507154415 18 276 8.0 22.5 0.00 0.00 0.00 40 1012.6
20260507153415 19 249 6.4 27.4 0.00 0.00 0.00 41 1012.6
20260507152415 19 299 14.5 29.0 0.00 0.00 0.00 40 1012.6
20260507151415 19 287 16.1 24.1 0.00 0.00 0.00 40 1012.7
20260507150416 19 316 9.7 20.9 0.00 0.00 0.00 41 1012.6
20260507145435 19 301 9.7 19.3 0.00 0.00 0.00 41 1012.7
20260507144416 18 337 12.9 22.5 0.00 0.00 0.00 42 1012.8
20260507143419 19 297 11.3 20.9 0.00 0.00 0.00 41 1012.9
20260507142415 19 263 9.7 19.3 0.00 0.00 0.00 39 1013.0
20260507141415 20 303 9.7 17.7 0.00 0.00 0.00 40 1013.0
20260507140415 19 259 12.9 24.1 0.00 0.00 0.00 41 1013.2
20260507135435 20 272 11.3 19.3 0.00 0.00 0.00 40 1013.2
20260507134415 20 274 11.3 20.9 0.00 0.00 0.00 41 1013.3
20260507133415 18 318 8.0 14.5 0.00 0.00 0.00 43 1013.3